sat.trackr.live / text

‹ back to catalog

STARLINK-33961

NORAD 64047 · 2025-102AB

PAYLOAD ACTIVE UNKNOWN

§ Identity

Operator
Country
US
Launch date
2025-05-16
Launch site
AFWTR
Launch vehicle
Mass (kg)
RCS (m²)

Purposes: comms

External: N2YO · Heavens-Above · Gunter

§ Orbital elements

Epoch: 2026-05-24T19:26:14.957376Z

Period
96.11 min
Inclination
70.0006°
Eccentricity
0.0002967
Mean motion
14.98335630 rev/d
Perigee alt
570.0 km
Apogee alt
574.1 km
Semi-major
6,950.2 km
B*
4.3789e-5
RAAN
282.5487°
Arg perigee
267.7555°
Mean anomaly
92.3264°
Rev number
5,723

§ Raw data

STARLINK-339611 64047U 25102AB  26144.80989534  .00000430  00000+0  43789-4 0  99952 64047  70.0006 282.5487 0002967 267.7555  92.3264 14.98335630 57238

JSON: /api/v1/satellites/64047 · /tle

For live sub-satellite position, see the globe view (requires WebGL).

§ Visibility from observer

Set your observer location to see the next 7 days of passes ≥ 10°. The values pass through the URL so the page stays shareable.

No JS? Fill the form by hand. The geolocation button needs JavaScript.